Wind_Speed
19 19 20 21 21 21 21 20 20 20 21 21 21 22 21 22 21 22 21 20 21 21 21 21 22 22 22 22 22 22 22 22 22 21 21 21 21 20 20 20 19 18 17 17 16 16 15 14 13
20 21 22 22 23 22 22 22 22 22 22 23 23 23 24 24 23 23 23 22 22 23 23 23 23 24 24 24 24 24 24 24 24 23 23 23 22 22 22 22 22 21 20 19 19 18 17 16 15
21 22 23 23 24 24 24 24 24 24 24 25 26 26 26 25 26 25 25 25 24 24 25 25 25 26 26 26 25 25 25 25 25 25 25 25 24 24 24 24 24 23 23 22 21 20 20 19 18
23 23 24 25 25 25 25 26 26 26 26 27 27 28 28 28 28 28 28 28 27 27 27 27 27 28 28 29 28 28 27 27 27 27 27 26 26 26 26 25 25 25 25 24 23 23 22 21 20
24 25 25 25 26 26 27 27 27 28 28 29 29 30 30 30 30 30 30 30 30 30 30 30 30 31 31 31 31 30 30 30 29 29 29 28 28 28 27 27 27 26 26 26 25 25 24 23 22
25 26 26 26 26 27 28 28 29 29 30 31 32 32 33 33 33 33 33 33 33 32 33 33 33 33 34 34 34 33 33 32 32 31 31 30 30 29 29 29 28 28 28 27 27 26 26 25 24
27 27 27 27 28 29 29 30 30 31 32 33 34 35 34 35 36 36 36 36 36 36 36 36 35 35 36 36 36 36 36 36 35 34 33 33 32 32 31 31 31 30 30 30 29 28 27 26 25
27 28 28 29 29 30 31 32 33 33 34 35 36 37 36 37 38 38 39 39 39 39 39 39 39 38 38 38 38 38 38 38 38 37 37 36 35 34 34 33 33 32 32 32 31 30 29 28 27
26 28 28 30 31 32 33 34 35 35 36 37 38 39 39 39 40 40 41 41 42 42 42 41 41 41 41 41 41 41 41 40 40 40 40 39 38 37 37 36 36 35 35 34 33 33 32 31 29
27 28 29 31 32 33 34 35 36 37 37 39 40 40 41 41 41 42 42 43 43 44 44 44 44 44 44 44 44 44 44 43 43 42 43 43 42 41 40 39 39 38 38 37 35 34 33 33 31
28 29 30 32 33 34 35 36 37 38 39 40 40 41 42 42 42 43 43 44 45 46 46 46 47 46 47 47 47 47 47 47 46 45 45 45 45 45 44 43 42 41 41 39 38 37 35 34 34
28 30 31 33 34 35 36 38 38 39 40 41 41 42 42 43 44 44 44 45 46 47 48 48 49 49 49 50 50 50 49 50 49 48 48 47 47 47 47 46 45 44 43 42 40 39 38 37 36
29 30 31 33 34 36 37 38 39 40 41 41 42 43 43 44 45 46 46 47 48 49 49 50 51 51 52 52 52 53 52 52 52 51 51 50 49 49 49 49 48 46 46 45 43 42 41 39 38
30 31 32 33 35 36 37 38 39 40 41 42 42 43 45 45 46 47 48 48 49 49 50 51 52 52 53 54 54 54 54 54 54 54 54 53 52 52 52 51 50 49 48 47 46 44 43 42 40
30 31 32 34 36 37 38 38 39 40 40 41 42 43 45 45 46 48 48 49 50 50 51 51 52 53 54 55 56 56 56 56 56 57 56 55 54 54 54 54 53 52 51 50 48 47 46 44 43
31 32 33 34 36 37 38 37 38 39 40 40 41 42 44 45 46 48 49 50 51 51 52 52 53 54 55 56 57 57 58 58 58 59 59 57 56 56 56 56 55 55 54 52 50 49 48 46 45
30 32 32 33 35 36 36 35 36 38 39 40 41 42 44 45 47 48 49 50 52 52 52 53 54 55 56 56 57 58 58 59 59 61 61 60 58 58 58 58 57 57 56 54 52 51 50 48 46
32 33 33 33 35 36 35 35 35 38 40 41 42 43 44 46 47 49 50 50 51 52 52 52 54 55 56 57 58 59 59 59 60 62 62 61 61 60 61 60 59 60 59 57 54 52 51 50 49
34 35 35 35 36 37 36 35 35 38 41 43 44 45 46 47 48 49 50 51 51 52 52 51 54 55 56 57 58 59 59 58 60 61 63 62 62 61 62 62 61 62 61 59 56 53 53 52 51
35 36 36 36 38 39 37 35 36 38 41 43 44 45 47 47 48 49 49 50 51 51 51 51 51 52 55 57 58 58 59 58 59 60 62 63 63 62 61 62 62 63 62 60 58 56 54 53 51
36 37 37 38 38 39 39 36 36 38 40 42 44 46 47 48 49 50 50 49 50 50 50 51 51 52 53 54 56 57 58 58 58 59 61 62 62 62 62 62 63 63 63 62 61 58 55 54 53
37 38 39 39 40 39 40 41 37 39 39 42 44 46 48 49 50 50 50 49 49 50 51 50 50 51 51 52 53 54 55 55 56 57 59 61 62 62 62 62 64 63 63 64 62 59 56 55 54
39 39 40 41 41 41 41 43 40 40 42 44 46 47 48 49 49 49 50 50 49 50 51 50 49 49 50 50 51 50 50 51 53 54 56 59 60 61 61 61 61 61 61 62 62 60 58 56 55
41 41 42 42 42 43 43 44 44 43 45 46 47 48 49 49 49 48 48 49 49 49 48 48 48 47 47 47 48 49 48 48 49 50 53 56 57 59 59 59 59 60 60 61 62 61 60 58 56
42 42 44 45 45 45 45 47 45 45 46 47 47 48 49 49 49 48 48 47 48 47 47 46 46 45 45 45 46 46 46 46 47 47 50 53 54 56 57 55 57 60 61 61 61 60 60 58 56
42 43 44 46 48 47 47 48 46 45 46 47 47 48 48 48 48 47 46 46 46 46 45 45 44 44 45 45 45 45 44 44 45 46 47 50 51 52 53 53 55 58 60 60 60 58 59 57 55
43 43 44 46 49 50 49 49 47 46 46 47 48 48 48 48 48 47 46 45 44 43 43 44 43 43 43 43 43 43 42 41 42 44 45 46 49 51 51 52 52 55 56 56 58 58 58 56 55
43 44 45 46 49 52 51 50 49 47 46 47 48 48 48 47 47 46 45 44 43 43 43 43 43 42 41 41 41 41 40 40 41 43 43 44 46 48 50 50 51 53 54 53 56 57 57 56 55
44 45 46 47 49 51 53 51 49 47 47 47 47 47 48 47 46 45 44 43 42 42 42 42 40 40 39 40 39 38 39 39 41 43 43 43 44 45 46 47 48 50 51 51 53 55 55 54 54
46 46 47 48 49 50 54 53 48 47 46 46 46 47 47 47 45 44 43 42 41 41 41 40 39 38 37 36 36 36 36 37 40 42 42 42 43 44 43 43 45 47 48 49 50 51 52 52 51
Wind_Direction
261 260 259 259 258 258 259 260 258 257 258 258 257 258 258 259 259 260 262 260 259 257 255 253 252 251 250 250 250 250 250 249 248 248 249 249 249 249 249 251 252 254 255 257 259 261 264 266 271
264 263 261 261 261 261 262 261 260 259 259 259 259 259 260 260 261 261 261 261 260 259 257 255 254 253 252 252 252 251 251 251 250 250 249 249 250 250 251 252 253 254 255 256 259 261 263 264 268
264 264 263 263 263 264 264 262 262 261 261 261 261 261 261 261 261 261 261 261 260 259 258 257 255 254 254 253 253 252 253 252 252 252 251 251 250 250 251 252 253 255 256 256 258 260 262 264 266
266 265 265 265 265 265 265 264 263 263 262 262 263 263 263 262 261 261 260 260 259 259 258 258 257 256 255 254 254 253 253 253 253 253 253 253 252 252 251 252 253 255 256 256 257 259 261 263 265
266 266 266 267 267 267 266 265 265 265 265 264 264 264 264 263 263 262 261 260 260 260 259 259 258 257 256 255 254 254 254 254 254 254 254 254 254 253 253 253 253 255 255 256 257 258 259 261 263
267 266 267 268 268 267 267 267 266 266 266 266 266 266 265 265 264 263 262 262 261 261 260 259 259 258 257 255 255 254 254 254 255 255 255 255 254 254 255 255 255 256 257 257 258 258 259 260 262
268 267 268 268 268 268 268 267 267 267 267 267 267 267 266 266 265 264 263 262 261 261 260 260 259 259 258 256 256 255 255 255 254 255 255 256 255 254 255 255 256 257 258 258 258 258 259 260 261
270 269 268 268 268 268 268 268 268 267 268 268 267 267 266 265 265 265 264 263 262 262 261 260 260 259 258 256 255 255 255 255 254 254 255 255 255 255 255 256 256 257 257 257 257 257 258 259 260
272 271 270 270 270 270 269 269 269 269 269 269 269 269 268 266 266 265 265 264 264 263 262 261 261 260 259 257 256 255 255 255 254 254 254 254 255 255 255 254 255 256 256 257 257 257 256 258 259
274 274 274 273 271 271 270 269 269 270 271 271 271 271 269 267 266 265 265 265 265 265 264 263 262 260 259 257 256 255 255 254 254 254 254 254 254 254 254 254 255 255 256 255 256 257 256 256 257
277 277 276 275 273 272 271 271 271 272 273 273 272 271 270 269 267 266 266 265 265 265 264 263 262 261 259 257 256 255 254 254 253 254 253 254 254 254 254 253 253 254 255 255 255 255 256 256 255
280 279 278 277 275 273 272 272 273 274 273 273 273 273 271 271 270 269 268 266 266 265 264 263 262 261 260 258 257 256 254 254 254 253 253 253 253 253 252 252 252 252 254 254 255 254 253 254 254
283 282 281 280 278 277 276 275 274 274 274 275 274 273 273 272 272 271 269 268 267 266 265 264 263 262 261 259 258 257 255 254 253 253 253 253 252 251 251 251 250 250 252 253 253 253 252 252 253
284 284 283 283 281 279 279 279 277 276 276 277 276 275 275 275 275 273 271 270 268 267 266 265 264 263 262 260 259 258 257 255 253 253 252 251 252 250 250 249 248 248 249 251 252 252 251 252 251
287 287 286 285 284 282 281 280 279 279 279 279 278 277 277 277 277 274 273 271 270 269 267 266 265 264 263 261 260 259 258 256 253 252 250 249 250 250 249 248 247 247 247 248 250 251 250 251 251
291 291 290 289 287 285 282 281 280 280 280 280 280 279 278 278 278 277 275 273 271 269 268 266 265 263 262 261 260 259 258 257 254 252 250 248 248 248 248 248 247 246 246 246 247 249 249 250 250
293 293 293 291 289 287 285 283 281 281 281 281 280 280 279 279 279 279 278 275 273 270 269 268 266 265 264 262 262 260 259 257 255 253 251 249 247 246 246 246 246 244 244 244 245 247 248 248 248
296 295 295 293 291 289 287 285 283 283 284 284 283 282 281 281 280 280 280 278 276 272 270 268 268 268 265 264 262 260 259 258 256 253 251 249 247 246 245 244 245 244 243 242 243 244 246 246 247
297 297 296 295 292 291 289 288 286 286 287 287 286 285 284 283 283 283 282 280 278 275 271 270 270 270 268 266 264 261 259 258 256 254 250 248 248 245 244 244 244 243 242 241 241 243 243 244 245
299 298 298 296 294 293 292 291 291 291 291 290 289 288 287 287 286 285 284 283 280 276 274 273 272 271 270 268 266 263 261 258 256 254 250 247 246 244 243 242 242 241 240 239 240 241 241 242 244
300 299 299 298 296 295 295 293 293 293 293 293 293 293 291 289 288 287 286 285 282 278 277 276 273 272 270 269 267 264 262 258 255 253 250 245 244 243 241 241 241 241 240 238 238 239 240 240 241
300 300 299 299 299 297 297 296 296 297 297 297 297 296 294 292 291 289 287 285 283 280 278 278 276 273 271 269 267 265 263 257 254 251 248 244 243 241 240 240 239 240 239 236 235 236 238 239 239
300 299 299 299 299 298 299 298 300 301 300 299 299 299 296 295 294 292 289 286 284 283 280 278 277 275 272 269 266 264 262 258 253 249 246 242 241 240 238 238 238 238 236 234 233 234 236 237 238
298 298 297 297 298 298 299 299 301 303 302 302 301 300 298 297 296 295 292 288 286 284 282 281 277 276 274 269 266 264 262 258 252 248 244 241 240 238 237 236 236 236 234 233 233 233 234 235 235
297 298 298 298 298 299 299 299 303 305 305 304 303 301 299 299 298 296 293 291 288 284 283 282 279 276 273 270 267 265 262 258 253 247 243 240 239 238 237 236 236 235 233 232 231 232 233 233 234
296 297 298 298 299 299 299 300 304 306 306 305 304 303 302 300 299 298 295 292 288 286 284 282 279 277 274 271 268 265 262 257 252 247 242 240 239 237 237 236 236 235 233 232 231 231 231 232 233
296 296 297 298 298 299 300 300 302 305 306 305 304 304 303 302 301 299 297 294 290 286 284 281 279 276 275 272 267 263 259 256 251 245 241 239 239 237 236 236 235 233 232 233 231 230 231 232 232
295 297 298 299 300 300 301 303 306 307 307 305 304 303 303 302 300 299 298 294 291 286 283 281 279 277 274 271 266 261 258 255 250 244 240 239 238 237 237 238 235 232 232 232 231 231 231 231 230
295 297 298 297 298 300 302 304 308 307 306 305 303 302 303 302 300 299 297 294 291 287 282 281 280 277 274 270 264 262 259 254 248 243 241 239 237 236 236 236 233 231 231 230 229 229 230 229 230
294 296 297 297 298 298 299 303 307 305 304 303 302 301 301 302 301 299 297 295 291 287 283 280 278 276 272 268 264 262 258 252 247 243 240 238 234 235 235 232 231 229 230 228 228 227 228 228 230
Height
5811 5811 5812 5814 5815 5816 5816 5818 5819 5820 5820 5821 5821 5822 5823 5825 5827 5830 5829 5829 5830 5831 5832 5833 5834 5835 5836 5837 5839 5840 5841 5843 5844 5845 5846 5847 5848 5849 5850 5852 5853 5854 5855 5856 5857 5858 5858 5859 5860
5807 5808 5809 5810 5810 5811 5813 5814 5814 5815 5816 5816 5817 5818 5819 5820 5821 5823 5823 5824 5825 5827 5828 5829 5830 5831 5832 5833 5835 5836 5837 5838 5840 5841 5842 5843 5844 5845 5847 5848 5849 5850 5852 5853 5854 5854 5855 5856 5857
5803 5804 5805 5805 5806 5807 5808 5809 5810 5810 5811 5812 5812 5813 5814 5815 5816 5817 5818 5819 5821 5822 5823 5824 5825 5826 5827 5828 5830 5831 5833 5834 5835 5836 5837 5839 5840 5841 5842 5844 5845 5846 5848 5849 5850 5851 5852 5853 5854
5799 5799 5800 5801 5801 5802 5803 5804 5804 5805 5806 5806 5807 5808 5809 5810 5811 5812 5813 5814 5815 5816 5818 5819 5820 5821 5822 5823 5825 5826 5827 5829 5830 5832 5833 5834 5835 5836 5838 5839 5840 5842 5843 5845 5846 5847 5848 5849 5850
5794 5794 5795 5795 5796 5797 5797 5798 5799 5799 5800 5800 5801 5802 5802 5804 5804 5805 5807 5808 5809 5811 5812 5813 5814 5815 5816 5818 5819 5820 5822 5823 5825 5826 5827 5829 5830 5831 5833 5834 5836 5837 5839 5840 5841 5843 5843 5845 5846
5788 5789 5789 5790 5790 5791 5791 5792 5793 5793 5794 5794 5794 5795 5796 5796 5797 5798 5800 5801 5802 5804 5805 5806 5807 5808 5810 5811 5813 5814 5816 5817 5819 5820 5822 5823 5824 5826 5827 5829 5830 5832 5833 5835 5837 5838 5839 5840 5841
5783 5783 5783 5784 5784 5784 5785 5785 5786 5786 5786 5787 5787 5787 5789 5789 5789 5790 5792 5793 5794 5796 5797 5798 5800 5801 5802 5804 5805 5807 5809 5810 5812 5814 5815 5817 5818 5820 5821 5823 5825 5826 5828 5829 5831 5833 5834 5835 5837
5776 5777 5777 5777 5777 5778 5778 5778 5778 5778 5779 5779 5779 5779 5781 5781 5781 5782 5783 5784 5786 5787 5789 5790 5792 5793 5795 5796 5798 5799 5801 5803 5804 5806 5808 5810 5811 5813 5815 5816 5818 5820 5821 5823 5825 5827 5829 5830 5832
5770 5771 5770 5770 5770 5770 5770 5770 5770 5770 5771 5770 5770 5770 5772 5772 5772 5773 5774 5775 5776 5778 5779 5781 5783 5784 5786 5788 5789 5791 5792 5794 5796 5798 5800 5802 5804 5806 5808 5810 5811 5813 5815 5817 5818 5820 5822 5824 5826
5763 5763 5763 5762 5762 5762 5761 5761 5761 5762 5762 5761 5760 5760 5761 5762 5763 5764 5764 5765 5766 5767 5769 5770 5772 5774 5776 5778 5780 5781 5783 5785 5787 5789 5791 5793 5796 5798 5800 5802 5804 5806 5807 5809 5811 5814 5816 5818 5820
5757 5756 5755 5754 5753 5753 5752 5752 5752 5752 5752 5751 5751 5750 5750 5751 5752 5753 5754 5755 5756 5757 5758 5759 5761 5763 5765 5767 5769 5771 5773 5775 5777 5779 5781 5783 5786 5788 5791 5793 5795 5798 5799 5801 5804 5806 5809 5811 5813
5750 5748 5747 5745 5744 5743 5743 5742 5742 5741 5741 5740 5740 5739 5739 5739 5740 5741 5743 5744 5745 5745 5746 5747 5748 5750 5752 5754 5757 5759 5762 5764 5766 5768 5770 5772 5776 5778 5780 5783 5786 5789 5791 5793 5796 5798 5801 5803 5805
5742 5741 5739 5737 5735 5734 5733 5732 5732 5732 5730 5730 5729 5728 5728 5728 5728 5729 5730 5731 5732 5733 5734 5734 5735 5737 5739 5741 5743 5746 5749 5751 5754 5756 5758 5761 5764 5767 5770 5772 5775 5779 5781 5784 5787 5790 5792 5795 5797
5735 5733 5731 5729 5727 5725 5724 5723 5721 5721 5720 5719 5718 5717 5717 5717 5717 5717 5717 5718 5719 5719 5720 5721 5722 5723 5725 5727 5729 5731 5734 5737 5739 5743 5745 5748 5752 5755 5758 5761 5764 5767 5771 5774 5777 5780 5783 5786 5789
5727 5725 5723 5720 5718 5716 5715 5714 5712 5710 5709 5708 5707 5706 5705 5705 5704 5704 5704 5704 5705 5705 5706 5707 5708 5708 5710 5712 5714 5716 5719 5721 5724 5728 5731 5734 5738 5742 5745 5749 5752 5756 5759 5763 5767 5770 5773 5777 5780
5720 5718 5715 5712 5709 5706 5706 5705 5703 5700 5699 5698 5696 5695 5694 5693 5692 5691 5690 5690 5690 5690 5691 5692 5692 5693 5695 5696 5698 5700 5702 5704 5708 5712 5716 5720 5724 5727 5731 5735 5740 5743 5747 5751 5756 5760 5763 5767 5771
5712 5710 5707 5704 5701 5698 5696 5696 5695 5691 5689 5688 5686 5684 5683 5681 5680 5678 5677 5676 5675 5675 5675 5676 5676 5678 5679 5681 5682 5684 5686 5688 5691 5695 5699 5704 5708 5713 5717 5722 5726 5730 5734 5739 5744 5748 5752 5756 5760
5705 5702 5699 5696 5692 5690 5687 5687 5686 5682 5679 5678 5675 5673 5672 5670 5668 5666 5664 5661 5660 5659 5660 5660 5660 5661 5663 5664 5666 5668 5669 5671 5674 5678 5682 5687 5692 5697 5702 5707 5712 5717 5721 5727 5732 5736 5741 5745 5749
5697 5694 5691 5688 5684 5681 5680 5679 5677 5673 5670 5668 5665 5662 5660 5658 5655 5653 5650 5647 5645 5644 5644 5644 5645 5645 5645 5646 5648 5650 5652 5654 5657 5660 5665 5670 5675 5680 5686 5691 5697 5702 5707 5714 5719 5724 5729 5734 5739
5689 5686 5683 5680 5675 5673 5671 5671 5668 5664 5660 5657 5654 5651 5648 5645 5642 5640 5637 5633 5631 5630 5630 5629 5629 5629 5628 5629 5630 5631 5634 5636 5639 5643 5647 5652 5657 5663 5669 5675 5682 5687 5693 5699 5706 5712 5717 5722 5728
5681 5677 5674 5671 5668 5664 5662 5662 5660 5656 5651 5647 5644 5639 5636 5632 5630 5627 5623 5620 5618 5616 5615 5614 5614 5613 5612 5612 5612 5613 5615 5617 5621 5625 5629 5634 5640 5646 5652 5659 5665 5672 5678 5685 5692 5699 5705 5711 5716
5673 5669 5665 5661 5658 5656 5653 5649 5652 5647 5642 5637 5633 5628 5623 5620 5616 5613 5610 5607 5605 5603 5601 5600 5598 5597 5596 5595 5595 5596 5597 5600 5604 5607 5611 5616 5621 5628 5635 5642 5649 5656 5663 5670 5678 5685 5691 5698 5704
5664 5660 5657 5653 5649 5647 5645 5639 5642 5638 5632 5627 5622 5617 5611 5607 5604 5600 5597 5594 5592 5590 5587 5585 5584 5583 5582 5580 5580 5581 5582 5584 5586 5590 5594 5600 5605 5611 5618 5625 5633 5640 5648 5656 5664 5671 5678 5685 5692
5655 5652 5648 5644 5641 5639 5636 5631 5630 5627 5621 5616 5611 5605 5600 5595 5591 5588 5584 5581 5579 5576 5574 5571 5570 5568 5567 5567 5566 5566 5567 5568 5571 5574 5579 5585 5590 5596 5602 5610 5618 5626 5634 5641 5649 5657 5665 5672 5680
5647 5643 5638 5634 5631 5629 5626 5621 5621 5617 5611 5605 5599 5594 5588 5584 5579 5576 5572 5569 5566 5564 5561 5558 5556 5556 5555 5554 5553 5553 5554 5555 5557 5561 5566 5571 5576 5582 5589 5596 5604 5611 5619 5627 5635 5643 5652 5659 5667
5638 5634 5630 5624 5620 5618 5616 5612 5613 5608 5600 5593 5588 5582 5577 5572 5567 5563 5560 5556 5553 5551 5549 5546 5544 5544 5542 5541 5541 5541 5541 5543 5545 5549 5554 5559 5564 5569 5576 5583 5590 5597 5605 5614 5622 5630 5639 5647 5655
5628 5625 5620 5615 5609 5606 5605 5603 5603 5598 5590 5583 5577 5571 5566 5561 5556 5552 5548 5544 5541 5539 5537 5535 5533 5532 5530 5529 5529 5529 5530 5532 5535 5538 5542 5547 5552 5558 5563 5570 5577 5584 5592 5600 5609 5618 5627 5635 5644
5619 5615 5610 5604 5598 5593 5592 5592 5591 5586 5579 5573 5566 5560 5555 5550 5546 5541 5537 5534 5530 5527 5525 5523 5521 5520 5518 5517 5518 5519 5520 5521 5524 5527 5532 5537 5542 5547 5552 5558 5565 5572 5580 5588 5597 5606 5615 5623 5632
5609 5606 5599 5594 5589 5583 5578 5583 5582 5575 5568 5562 5556 5550 5545 5540 5535 5531 5527 5522 5518 5515 5513 5512 5510 5508 5507 5506 5507 5508 5509 5511 5513 5516 5521 5526 5531 5536 5542 5548 5555 5561 5569 5578 5586 5595 5604 5612 5621
5598 5595 5590 5585 5580 5572 5566 5570 5572 5565 5557 5551 5546 5540 5534 5529 5525 5520 5516 5512 5508 5505 5502 5500 5499 5497 5496 5496 5496 5497 5499 5501 5503 5506 5511 5516 5521 5527 5532 5537 5545 5552 5560 5568 5576 5585 5593 5602 5611